Date,TemperatureHighF,TemperatureAvgF,TemperatureLowF,DewpointHighF,DewpointAvgF,DewpointLowF,HumidityHigh,HumidityAvg,HumidityLow,PressureMaxIn,PressureMinIn,WindSpeedMaxMPH,WindSpeedAvgMPH,GustSpeedMaxMPH,PrecipitationSumIn
2013-10-1,87,71,60,70,63,57,98,78,47,28.97,28.82,8,2,9,3.41
2013-10-2,87,72,60,75,66,60,98,85,52,29.00,28.85,9,2,9,3.37
2013-10-3,86,74,63,73,69,62,98,85,59,28.91,28.70,20,4,20,0.04
2013-10-4,90,77,66,74,68,60,97,77,50,28.88,28.70,18,5,18,0.00
2013-10-5,66,55,47,65,41,33,98,60,42,29.00,28.85,14,4,14,0.00
2013-10-6,64,51,42,46,40,32,92,67,48,28.97,28.76,15,5,18,0.00
2013-10-7,75,58,42,49,44,38,95,63,37,29.09,28.94,8,2,10,0.00
2013-10-8,78,63,50,51,47,43,81,58,35,29.06,28.97,19,3,19,0.00
2013-10-9,78,64,50,53,49,43,89,62,37,29.09,29.00,12,2,12,0.00
2013-10-10,80,63,45,59,51,44,98,69,40,29.03,28.85,12,2,14,3.41
2013-10-11,75,67,57,66,61,53,93,80,70,28.88,28.76,16,4,17,0.00
2013-10-12,71,60,48,65,43,32,89,56,34,29.20,28.79,14,5,17,0.00
2013-10-13,72,57,44,43,37,32,70,47,32,29.35,29.20,13,3,13,0.00
2013-10-14,72,58,48,60,45,32,94,62,41,29.26,28.82,23,5,23,3.41
2013-10-15,64,56,47,59,45,36,98,69,45,29.03,28.82,16,5,18,3.41
2013-10-16,65,52,46,44,40,37,84,65,45,29.06,28.91,14,4,16,0.00
2013-10-17,69,54,40,47,42,33,97,69,36,28.97,28.82,14,3,14,3.41
2013-10-18,48,40,36,41,37,34,98,90,72,29.09,28.94,12,3,12,0.00
2013-10-19,64,47,35,41,37,32,98,71,38,29.03,28.82,15,3,15,0.00
2013-10-20,72,57,46,47,42,38,77,58,36,28.91,28.73,11,3,13,0.00
2013-10-21,59,48,40,44,34,26,84,60,39,29.06,28.88,13,4,13,0.00
2013-10-22,62,49,36,47,38,32,88,65,46,29.03,28.82,20,6,20,0.00
2013-10-23,54,42,31,38,33,29,98,73,47,29.12,28.97,6,2,7,3.41
2013-10-24,52,42,32,38,29,20,98,64,38,29.35,29.09,20,4,20,0.00
2013-10-25,59,44,27,33,26,20,88,52,29,29.38,29.06,11,2,15,0.00
2013-10-26,61,49,35,43,34,24,84,56,36,29.12,29.00,15,4,15,0.00
2013-10-27,65,47,29,37,30,24,91,56,34,29.12,28.88,10,2,13,0.00
2013-10-28,73,52,34,53,40,24,98,67,40,29.12,28.94,9,1,9,0.00
2013-10-29,62,55,46,62,54,45,98,97,90,29.09,28.88,10,3,10,3.41
2013-10-30,68,65,61,67,64,61,98,97,83,28.91,28.64,16,4,16,0.00
2013-10-31,62,50,46,62,49,42,98,93,70,28.70,28.52,16,4,16,0.00